Total_Precipitation_Accumulation
0.00 0.00 0.00 0.01 0.00 0.00 0.00 0.01 0.11 0.07 0.00 0.03 0.06 0.06 0.35 0.00 0.01 0.08 0.08 0.04 0.19 0.04 0.02 0.05 0.12 0.09 0.29 0.96 0.54 0.41 0.32 0.59 0.73 0.89 2.43 2.41 2.90 3.71 3.65 3.72 4.21 2.79 2.36 2.78 3.92 2.53 1.79 1.45 1.46 1.03 0.41 0.79 0.35 0.38 0.20 0.16 0.30 0.37 0.35 0.18 0.11 0.10 0.10 0.12 0.09 0.09 0.08 0.07 0.07 0.08 0.10 0.09 0.14 0.15 0.16 0.18 0.29 0.29 0.23 0.28 0.43 0.61 0.63 0.58 0.40 0.48 0.58 0.47 0.29 0.23 0.27 0.24 0.22 0.22 0.19 0.22 0.13
0.00 0.00 0.00 0.00 0.00 0.00 0.03 0.00 0.02 0.04 0.02 0.02 0.04 0.03 0.06 0.04 0.02 0.08 0.28 0.11 0.14 0.10 0.02 0.01 0.18 0.18 0.20 0.26 0.38 0.33 0.37 0.52 0.51 0.62 1.46 1.98 2.72 4.38 2.69 3.31 3.55 2.72 3.01 3.70 4.61 3.48 2.02 1.50 1.20 1.13 1.01 0.77 0.55 0.30 0.30 0.24 0.20 0.27 0.22 0.14 0.07 0.08 0.07 0.05 0.06 0.08 0.08 0.07 0.09 0.12 0.14 0.10 0.11 0.12 0.15 0.13 0.15 0.13 0.24 0.27 0.35 0.52 0.72 0.70 0.81 0.62 0.52 0.60 0.55 0.25 0.25 0.27 0.25 0.22 0.17 0.12 0.09
0.00 0.00 0.00 0.00 0.00 0.01 0.00 0.02 0.05 0.05 0.05 0.09 0.09 0.07 0.04 0.06 0.06 0.10 0.17 0.28 0.12 0.01 0.01 0.05 0.09 0.22 0.26 0.16 0.53 0.45 3.05 0.77 0.63 0.77 1.76 2.08 1.88 3.03 4.41 2.66 3.20 2.52 2.88 3.32 3.04 2.57 2.62 1.50 1.69 1.14 0.82 0.73 0.60 0.36 0.27 0.28 0.15 0.10 0.08 0.07 0.08 0.09 0.06 0.07 0.07 0.07 0.07 0.08 0.11 0.15 0.13 0.20 0.13 0.12 0.11 0.14 0.15 0.15 0.18 0.20 0.42 0.52 0.41 0.47 0.50 0.63 0.61 0.55 0.65 0.57 0.34 0.36 0.31 0.12 0.21 0.06 0.05
0.00 0.00 0.00 0.00 0.02 0.00 0.00 0.00 0.02 0.12 0.04 0.03 0.07 0.02 0.05 0.07 0.06 0.02 0.02 0.07 0.03 0.02 0.03 0.19 0.32 0.14 0.23 0.44 0.87 0.16 0.49 0.75 0.92 0.94 1.36 2.05 2.55 2.63 3.87 2.89 3.60 3.05 3.17 3.07 3.30 2.80 2.32 1.47 1.23 1.41 0.63 0.51 0.45 0.46 0.48 0.33 0.23 0.14 0.11 0.10 0.14 0.07 0.07 0.10 0.09 0.09 0.10 0.09 0.18 0.16 0.22 0.15 0.21 0.29 0.21 0.14 0.10 0.14 0.21 0.19 0.36 0.66 0.41 0.55 0.48 0.56 0.62 0.67 0.66 0.57 0.52 0.38 0.26 0.16 0.11 0.10 0.06
0.00 0.00 0.00 0.00 0.00 0.00 0.00 0.02 0.01 0.01 0.03 0.09 0.14 0.05 0.06 0.09 0.14 0.05 0.05 0.03 0.05 0.08 0.10 0.13 0.13 0.13 0.14 0.35 0.29 0.93 1.82 1.01 0.87 1.15 1.45 2.05 2.13 3.14 3.50 3.33 2.63 2.50 2.28 2.69 2.72 1.98 1.54 1.43 1.15 1.10 1.01 1.01 0.89 0.74 0.65 0.67 0.65 0.32 0.19 0.18 0.12 0.10 0.07 0.09 0.13 0.09 0.11 0.12 0.12 0.11 0.17 0.16 0.14 0.22 0.21 0.24 0.18 0.17 0.11 0.14 0.21 0.43 0.56 0.74 0.52 0.50 0.64 0.62 0.75 0.55 0.40 0.35 0.27 0.19 0.20 0.07 0.05
0.00 0.00 0.00 0.00 0.00 0.00 0.00 0.01 0.01 0.00 0.03 0.00 0.04 0.05 0.02 0.05 0.14 0.08 0.13 0.23 0.12 0.05 0.05 0.02 0.19 0.31 0.31 0.58 0.55 1.00 0.76 1.71 1.59 1.34 1.55 3.76 2.73 2.58 2.23 2.77 2.68 2.09 2.12 1.67 2.14 1.90 1.80 1.20 1.06 1.06 0.79 1.13 1.25 1.30 1.30 0.83 0.80 0.74 0.41 0.29 0.18 0.11 0.07 0.10 0.09 0.08 0.13 0.09 0.09 0.12 0.09 0.10 0.21 0.15 0.14 0.21 0.20 0.16 0.09 0.13 0.31 0.34 0.44 0.73 0.87 0.87 0.62 0.71 0.65 0.38 0.46 0.21 0.21 0.14 0.10 0.05 0.04
0.02 0.02 0.00 0.00 0.00 0.00 0.00 0.01 0.05 0.01 0.01 0.01 0.05 0.17 0.16 0.29 0.32 0.35 0.71 0.50 0.25 0.19 0.14 0.18 0.12 0.35 0.36 0.37 0.22 0.96 1.16 0.88 1.48 1.86 2.14 2.77 2.99 2.30 2.30 2.03 1.59 1.45 1.75 1.65 1.68 1.75 1.76 1.21 0.98 0.92 1.00 1.61 1.66 2.07 1.96 1.62 1.14 0.97 0.58 0.46 0.40 0.24 0.12 0.10 0.09 0.11 0.12 0.10 0.09 0.11 0.13 0.09 0.10 0.22 0.30 0.27 0.28 0.29 0.18 0.12 0.27 0.42 0.46 0.52 0.89 0.70 0.68 0.88 0.67 0.40 0.32 0.16 0.14 0.06 0.06 0.04 0.05
0.00 0.00 0.01 0.01 0.01 0.00 0.00 0.00 0.02 0.01 0.03 0.01 0.01 0.25 0.17 0.13 0.22 0.41 0.55 0.35 0.47 0.43 0.39 0.30 0.24 0.31 1.47 0.38 1.34 1.82 0.97 1.92 1.91 2.39 4.07 2.50 2.97 2.05 1.70 1.94 1.69 2.43 2.18 1.83 1.11 1.28 1.72 0.83 0.90 0.90 1.31 1.81 2.02 1.89 1.92 1.77 1.26 0.94 0.84 0.52 0.77 0.35 0.16 0.17 0.14 0.18 0.11 0.10 0.12 0.12 0.12 0.08 0.17 0.19 0.29 0.26 0.22 0.25 0.19 0.14 0.22 0.30 0.25 0.37 0.66 0.54 0.52 0.57 0.41 0.26 0.22 0.09 0.08 0.12 0.04 0.05 0.06
0.00 0.00 0.00 0.00 0.01 0.01 0.01 0.02 0.04 0.01 0.01 0.03 0.06 0.41 0.27 0.21 0.47 0.48 0.56 0.51 0.50 0.44 0.31 0.43 0.39 0.52 1.37 0.79 1.06 1.32 1.16 1.88 2.34 2.91 3.64 2.52 2.75 3.05 2.51 1.99 2.18 2.22 2.45 2.57 1.75 1.71 1.91 1.16 1.02 1.12 1.87 1.97 2.50 2.35 1.84 2.13 1.40 1.41 1.41 1.50 0.65 0.57 0.31 0.16 0.13 0.14 0.10 0.09 0.09 0.10 0.12 0.09 0.15 0.10 0.20 0.25 0.24 0.21 0.10 0.18 0.18 0.22 0.30 0.23 0.32 0.52 0.45 0.48 0.37 0.21 0.13 0.06 0.06 0.09 0.07 0.05 0.03
0.00 0.00 0.00 0.01 0.00 0.04 0.02 0.04 0.05 0.03 0.01 0.03 0.20 0.09 0.19 0.63 0.39 0.26 0.49 0.69 0.62 0.33 0.40 0.84 0.45 0.47 0.79 0.95 1.11 1.52 2.40 2.52 1.94 2.59 4.03 4.44 4.31 2.36 2.80 2.79 2.59 2.33 2.35 2.63 1.81 1.51 1.62 1.78 1.44 1.46 1.95 2.18 2.37 2.20 2.10 1.30 1.92 1.54 1.45 1.18 0.84 1.12 0.42 0.22 0.14 0.09 0.12 0.11 0.09 0.09 0.13 0.08 0.07 0.10 0.12 0.20 0.19 0.19 0.17 0.13 0.16 0.16 0.32 0.39 0.34 0.39 0.38 0.38 0.13 0.08 0.12 0.04 0.06 0.08 0.06 0.04 0.03
0.07 0.00 0.00 0.00 0.00 0.01 0.01 0.07 0.02 0.05 0.06 0.14 0.06 0.08 0.19 0.36 0.14 0.30 0.22 0.52 0.38 0.37 0.34 0.40 0.53 0.63 0.57 1.20 1.82 2.56 2.56 2.43 2.21 3.38 3.58 4.15 3.27 2.02 2.85 2.37 2.44 2.53 3.89 5.11 2.73 2.29 2.32 2.34 2.36 1.64 1.66 1.46 1.39 1.25 1.54 1.34 1.47 1.59 1.44 1.29 1.06 0.74 1.40 0.62 0.61 0.38 0.36 0.26 0.12 0.11 0.10 0.14 0.11 0.12 0.16 0.21 0.33 0.31 0.18 0.29 0.21 0.29 0.32 0.36 0.38 0.36 0.33 0.19 0.09 0.06 0.07 0.05 0.04 0.05 0.03 0.03 0.02
0.12 0.01 0.01 0.02 0.00 0.00 0.02 0.04 0.02 0.07 0.03 0.06 0.16 0.14 0.09 0.28 0.49 0.50 0.44 0.54 0.73 0.62 0.34 0.17 1.07 0.52 1.10 1.36 1.74 2.92 2.40 2.34 2.02 2.13 3.42 3.96 3.12 2.54 2.09 3.12 3.18 3.69 4.77 3.93 3.09 3.13 3.24 2.94 2.44 2.56 1.72 1.25 1.05 1.16 1.10 1.04 0.88 0.83 1.66 1.05 1.28 1.08 0.81 0.57 0.31 0.67 0.59 0.43 0.21 0.15 0.17 0.18 0.25 0.24 0.17 0.31 0.43 0.33 0.38 0.25 0.28 0.25 0.31 0.35 0.39 0.53 0.32 0.24 0.20 0.08 0.09 0.06 0.03 0.02 0.03 0.03 0.01
0.01 0.04 0.13 0.00 0.02 0.01 0.02 0.07 0.18 0.12 0.24 0.57 0.45 0.51 0.43 0.35 0.42 0.44 0.17 0.42 0.32 0.34 0.40 0.20 0.49 0.71 1.45 1.33 1.84 2.05 1.80 2.45 3.07 2.88 2.74 3.78 3.31 2.34 3.40 3.02 2.99 4.22 3.62 3.22 3.07 3.00 3.19 3.10 2.34 2.67 1.87 1.71 1.36 1.11 1.08 0.83 1.07 0.99 1.57 1.50 1.63 1.35 0.97 0.94 0.79 0.73 0.76 0.56 0.22 0.21 0.26 0.26 0.28 0.29 0.30 0.30 0.37 0.57 0.62 0.36 0.29 0.27 0.20 0.32 0.33 0.50 0.40 0.12 0.15 0.19 0.21 0.06 0.03 0.03 0.02 0.02 0.01
0.00 0.00 0.01 0.06 0.01 0.04 0.04 0.14 0.16 0.11 0.31 0.46 0.44 0.57 0.55 0.49 0.16 0.18 0.15 0.33 0.41 0.38 0.25 0.20 0.43 0.40 1.29 1.10 2.88 3.28 3.77 2.46 2.79 2.96 3.10 3.53 2.53 2.03 2.85 3.28 4.39 4.36 3.95 3.50 4.08 3.59 3.51 2.95 2.75 2.86 2.69 2.29 2.45 1.51 1.20 1.26 1.32 2.03 1.35 1.61 1.36 1.78 1.12 1.24 0.76 0.90 0.91 0.33 0.31 0.32 0.35 0.58 0.45 0.37 0.20 0.25 0.44 0.46 0.58 0.56 0.20 0.20 0.26 0.32 0.28 0.49 0.54 0.34 0.24 0.18 0.15 0.07 0.04 0.03 0.02 0.02 0.02
0.00 0.00 0.00 0.01 0.02 0.02 0.02 0.12 0.17 0.18 0.54 0.50 0.23 0.33 0.62 0.46 0.18 0.19 0.25 0.39 0.59 0.30 0.24 0.12 0.29 0.41 2.80 0.92 2.65 3.88 4.02 2.91 2.09 2.14 1.67 2.38 3.30 2.32 2.42 2.51 3.47 4.07 3.56 4.35 3.26 2.91 3.81 2.95 3.13 3.07 2.21 1.99 1.90 1.38 1.61 1.24 1.12 1.17 1.28 1.56 1.58 1.79 1.31 0.93 1.47 1.26 0.78 0.55 0.55 0.57 0.57 0.77 0.60 0.45 0.56 0.42 0.52 0.48 0.54 0.23 0.25 0.18 0.13 0.21 0.30 0.33 0.39 0.28 0.27 0.37 0.18 0.03 0.03 0.02 0.02 0.02 0.04
0.00 0.00 0.00 0.04 0.06 0.03 0.08 0.20 0.24 0.19 0.71 0.30 0.35 0.60 0.86 0.40 0.27 0.45 0.46 0.49 0.56 0.39 0.35 0.79 0.20 1.07 0.94 1.24 2.41 3.81 2.78 2.29 2.62 1.86 1.10 1.26 2.52 3.84 2.72 3.24 3.85 4.19 4.91 5.27 4.42 5.27 3.72 3.07 2.95 2.77 2.21 2.66 2.06 1.39 1.45 1.36 1.12 1.15 1.26 1.09 0.90 0.96 0.93 1.10 1.33 0.86 0.62 0.43 0.57 0.77 0.76 1.03 0.62 0.68 0.49 0.66 0.60 0.49 0.29 0.39 0.23 0.16 0.29 0.14 0.14 0.15 0.28 0.13 0.16 0.14 0.12 0.03 0.02 0.07 0.05 0.08 0.03
0.00 0.00 0.01 0.04 0.33 0.13 0.23 0.12 0.25 0.46 0.17 0.65 0.53 0.40 0.60 0.71 0.49 0.38 0.62 0.73 0.73 0.67 0.66 0.57 0.85 0.73 1.15 2.01 2.19 1.96 1.71 1.76 2.36 1.58 1.45 1.80 1.65 2.02 3.08 3.55 4.02 4.45 4.46 4.65 3.91 4.44 4.51 4.36 3.78 3.71 2.98 2.66 2.02 1.39 1.50 0.95 0.63 0.97 0.87 0.93 0.89 1.12 0.94 0.96 0.71 0.75 0.60 0.43 0.52 0.63 0.70 1.19 1.35 0.98 0.86 1.06 0.53 0.62 0.31 0.26 0.27 0.28 0.30 0.28 0.23 0.21 0.27 0.14 0.08 0.07 0.05 0.02 0.03 0.09 0.05 0.02 0.01
0.00 0.01 0.02 0.11 0.19 0.24 0.23 0.29 0.21 0.47 0.61 0.39 0.77 0.59 0.57 0.46 0.54 0.77 0.60 0.89 0.68 0.63 0.81 0.65 0.60 0.69 0.85 1.08 2.34 2.30 1.96 2.53 1.99 1.48 2.00 1.85 2.99 3.08 3.16 4.09 4.29 4.65 4.62 4.65 4.70 4.58 3.97 3.81 4.09 3.22 3.60 3.45 2.87 1.97 1.27 1.16 1.11 0.84 1.01 1.13 1.21 1.57 0.97 1.05 0.98 0.77 1.02 1.02 0.53 0.90 1.52 1.07 1.16 1.36 1.44 1.47 1.37 0.77 0.52 0.24 0.22 0.40 0.25 0.24 0.34 0.25 0.15 0.22 0.11 0.05 0.05 0.05 0.10 0.19 0.03 0.27 0.25
0.01 0.02 0.14 0.26 0.19 0.24 0.07 0.19 0.10 0.27 0.43 0.42 0.19 0.54 0.64 0.68 0.37 0.79 0.58 0.60 0.79 0.58 0.82 0.58 0.81 0.94 0.98 1.36 2.04 1.90 2.10 1.65 1.85 1.41 1.64 1.64 2.29 2.76 2.52 2.83 3.35 4.35 4.33 3.15 4.07 4.37 3.90 3.84 4.24 3.38 3.90 3.51 3.91 2.59 2.17 1.72 1.10 1.07 1.53 1.44 1.23 0.83 1.20 0.96 0.96 1.21 1.33 0.81 0.78 1.34 1.54 1.74 1.58 1.25 1.73 1.03 1.78 0.77 0.66 0.31 0.26 0.33 0.29 0.36 0.26 0.30 0.34 0.16 0.27 0.15 0.08 0.14 0.21 0.06 0.16 0.34 0.28
0.01 0.09 0.36 0.46 0.28 0.23 0.14 0.21 0.27 0.34 0.37 0.27 0.23 0.35 0.72 0.82 0.72 0.58 0.92 0.56 0.80 0.74 0.99 0.76 1.13 1.33 1.22 1.26 2.20 1.70 1.67 1.21 1.52 1.40 1.72 1.57 1.88 2.19 2.07 2.49 2.28 2.63 2.72 3.66 4.26 4.56 3.02 3.37 2.98 3.03 2.65 4.28 3.06 3.03 2.43 1.88 1.50 1.55 1.46 1.64 1.62 1.22 1.06 1.11 1.28 1.06 1.22 1.85 1.69 1.90 2.01 1.70 2.13 2.03 1.40 1.38 1.43 1.21 1.08 0.41 0.41 0.36 0.35 0.46 0.53 0.41 0.23 0.25 0.17 0.22 0.19 0.04 0.05 0.20 0.44 0.30 0.39
0.01 0.19 0.42 0.28 0.13 0.25 0.18 0.13 0.10 0.15 0.21 0.36 0.37 0.78 0.33 0.72 0.66 0.91 0.55 0.76 0.56 0.74 0.68 1.01 1.10 1.18 1.34 1.52 1.99 2.16 2.37 2.22 3.00 3.00 3.65 2.34 2.84 3.40 3.71 3.24 3.78 4.10 4.05 4.11 4.32 5.32 4.52 5.30 4.14 3.28 3.65 4.43 2.88 2.51 2.87 2.45 1.69 1.38 1.22 1.35 1.13 1.22 1.28 1.25 1.44 1.28 1.76 2.33 1.78 2.53 2.10 2.31 2.25 1.78 1.51 1.64 1.77 2.04 1.74 1.30 0.88 0.92 0.97 1.14 0.41 1.06 0.78 0.64 0.39 0.50 0.27 0.13 0.16 0.30 0.61 0.50 0.26
0.13 0.12 0.14 0.15 0.26 0.16 0.24 0.14 0.15 0.17 0.33 0.20 0.74 0.66 0.48 0.79 0.39 0.95 1.23 0.67 1.03 1.07 1.05 1.00 1.05 1.25 1.12 1.18 1.65 1.53 1.63 1.56 1.79 2.59 3.45 3.30 3.38 3.69 3.19 4.24 3.59 3.08 3.85 4.11 4.21 3.58 3.78 3.88 4.31 3.86 5.40 3.66 3.48 3.22 3.08 2.48 1.47 1.16 1.06 1.06 1.08 1.45 1.60 2.19 1.92 2.52 2.08 2.10 2.06 1.84 2.29 1.78 2.58 2.08 1.89 2.03 2.48 2.53 2.03 2.14 1.74 1.45 1.32 1.55 0.64 2.06 1.66 1.16 0.59 0.68 0.33 0.15 0.16 0.34 0.52 0.26 0.11
0.20 0.09 0.10 0.25 0.19 0.22 0.13 0.08 0.10 0.11 0.30 0.23 0.39 0.83 0.69 0.89 0.67 0.58 0.63 1.14 1.50 1.12 1.18 1.15 1.40 0.93 0.99 0.90 1.21 1.30 1.50 1.76 2.63 3.36 4.00 4.27 3.74 3.28 2.92 3.50 3.02 3.69 3.93 3.62 3.65 4.41 4.09 6.09 4.94 5.48 4.61 3.32 2.93 3.42 2.72 2.26 2.09 1.96 1.64 1.33 1.28 1.31 1.80 2.24 3.00 2.13 2.17 1.73 1.67 1.34 1.72 1.69 1.84 1.53 1.90 2.08 2.17 1.66 2.38 2.01 2.10 1.61 1.23 1.81 1.07 2.23 1.66 1.09 0.87 0.81 0.36 0.25 0.22 0.20 0.74 0.20 0.17
0.15 0.19 0.30 0.38 0.11 0.10 0.06 0.23 0.15 0.30 0.44 0.42 0.43 0.96 0.98 1.08 0.78 1.36 0.90 1.11 1.48 1.05 1.38 0.77 0.87 0.97 0.91 1.27 1.09 1.12 1.33 1.87 3.07 5.56 6.21 3.83 3.95 4.33 4.61 3.25 2.23 3.46 3.67 3.44 3.39 3.58 4.16 3.53 3.95 4.61 4.30 3.61 3.32 2.12 2.05 1.69 1.77 2.05 2.20 2.05 1.76 1.63 1.75 2.14 2.20 2.23 2.29 2.08 1.80 2.06 1.84 1.68 1.85 1.41 1.98 1.86 1.86 1.65 1.74 1.52 1.63 0.93 0.90 1.44 1.00 1.59 1.66 1.41 1.01 0.97 0.66 0.67 0.40 0.28 0.35 0.28 0.47
0.26 0.49 0.37 0.11 0.10 0.10 0.23 0.21 0.41 0.76 0.42 0.25 0.36 0.53 0.89 0.72 1.08 1.74 1.17 1.40 1.45 1.94 1.39 1.09 1.20 1.56 1.31 1.66 1.65 1.72 1.81 2.59 3.59 4.49 4.15 4.28 4.43 6.50 6.04 4.51 3.12 2.45 2.19 2.46 3.17 3.27 2.91 3.22 2.67 3.80 3.22 3.01 3.46 2.89 2.15 2.12 2.81 2.51 1.99 2.28 1.44 1.46 1.51 2.13 2.26 2.51 2.31 1.55 2.16 1.29 1.56 1.55 1.38 1.74 1.88 1.48 1.73 1.45 1.26 1.06 1.43 1.30 1.30 1.19 0.83 1.00 1.32 1.22 0.76 1.15 0.94 0.80 0.42 0.25 0.32 0.65 0.43
0.32 0.34 0.72 0.61 0.21 0.29 0.35 0.25 0.38 0.85 0.36 1.02 0.69 0.43 0.69 1.16 1.11 1.47 1.71 1.69 2.38 2.13 1.61 2.42 1.34 2.46 2.27 2.02 1.76 1.81 1.64 2.16 2.66 2.46 2.85 3.32 4.45 6.61 4.16 4.75 3.80 2.40 3.52 3.73 2.77 2.57 2.12 1.92 2.09 3.02 3.43 3.39 3.49 2.66 2.15 2.17 2.30 1.92 2.56 2.57 1.92 1.39 1.86 2.21 2.05 2.14 2.11 2.78 1.44 1.05 1.07 0.85 1.11 1.54 1.47 1.46 1.48 1.98 1.69 1.27 1.47 1.87 1.87 1.15 1.13 1.13 1.40 1.05 0.79 0.75 0.64 0.63 0.62 0.29 0.30 0.27 0.35
0.24 0.29 0.55 0.36 0.16 0.48 0.37 0.37 0.53 0.58 0.48 0.74 1.00 0.49 1.03 0.71 1.33 1.54 3.40 1.79 2.34 1.97 1.70 1.90 1.92 1.68 1.82 1.27 1.46 1.65 1.48 2.84 2.32 2.21 2.90 3.59 3.65 5.07 3.24 3.78 3.77 4.91 5.08 4.07 4.28 3.04 2.65 2.38 2.04 2.30 2.56 3.41 3.97 4.02 3.15 2.94 2.63 2.30 2.01 2.40 1.81 2.34 2.83 2.71 2.61 2.33 2.81 2.23 2.44 1.70 1.65 1.41 1.67 1.63 2.17 2.11 2.48 2.16 2.41 1.22 1.27 1.49 1.85 1.96 1.47 1.27 1.34 1.28 0.98 0.69 0.90 0.84 0.78 0.72 0.62 1.00 0.43
0.13 0.32 0.40 0.13 0.14 0.49 0.38 0.28 0.86 1.63 0.77 1.39 1.96 0.64 0.46 0.38 0.69 1.22 2.40 2.26 2.62 1.90 1.63 1.89 2.12 1.83 1.76 1.63 1.31 1.54 1.90 2.03 2.00 2.84 3.42 2.93 4.02 4.48 4.05 3.63 3.10 2.93 3.05 3.67 3.80 3.81 3.06 3.06 3.19 2.08 3.21 3.23 3.35 3.91 2.99 2.37 2.31 2.56 2.49 2.00 2.36 3.10 3.23 2.28 1.51 1.46 1.30 1.50 1.75 1.75 1.64 2.13 2.18 1.46 2.53 2.18 2.20 1.76 2.54 2.20 2.13 1.84 2.09 2.20 2.36 2.64 1.80 1.50 1.13 1.17 0.78 0.53 0.65 0.98 0.85 0.67 0.77
0.07 0.65 0.34 0.25 0.56 0.24 0.56 0.64 0.67 0.84 0.34 1.15 1.24 0.84 0.52 0.75 1.44 1.44 1.31 1.58 2.31 2.18 1.77 1.48 1.68 1.45 1.27 1.77 1.17 1.15 1.26 1.48 2.48 2.43 2.71 3.55 3.74 3.53 2.21 2.18 2.65 1.86 2.68 4.13 3.15 3.20 3.82 3.08 4.77 5.38 4.08 2.97 3.01 2.24 2.24 2.55 2.34 2.94 3.23 3.70 4.05 3.12 3.26 2.10 1.68 1.16 1.27 1.67 1.88 2.26 2.35 2.05 2.18 2.30 2.50 2.19 1.91 2.19 2.07 2.31 2.27 1.95 1.74 1.73 1.83 2.00 1.80 1.34 1.27 0.95 0.91 1.08 1.08 1.04 0.71 1.01 1.14
0.29 0.64 0.56 0.44 0.40 0.46 0.30 0.33 0.68 0.57 0.61 0.71 0.59 1.16 0.77 0.75 1.09 1.30 1.99 1.89 1.70 1.34 1.23 1.40 1.09 1.08 1.12 1.25 1.26 1.73 1.83 1.33 2.16 2.13 2.63 2.67 2.95 2.04 1.86 1.72 1.44 1.87 2.37 2.11 2.55 2.73 2.88 2.88 3.08 3.17 3.50 3.15 3.43 3.32 3.12 2.74 2.53 2.85 3.13 3.99 3.25 2.89 3.28 2.52 2.05 1.70 1.21 1.48 1.59 1.77 1.86 2.21 1.93 2.39 2.25 2.50 2.71 2.39 2.05 1.87 2.28 2.59 2.32 1.92 1.58 1.81 1.73 1.14 1.24 1.11 0.83 0.94 1.09 1.37 1.14 1.22 1.30
0.83 0.46 0.66 0.99 0.69 0.44 0.20 0.45 0.36 0.47 0.33 0.59 0.42 0.62 1.00 0.99 1.61 1.42 2.48 1.93 1.82 1.26 1.20 1.45 1.34 1.25 1.26 1.58 1.66 1.26 1.44 2.16 1.87 2.09 2.15 2.82 2.26 1.50 1.67 1.80 2.44 3.51 3.47 1.74 1.67 2.29 3.02 2.46 2.78 2.88 3.00 3.38 2.47 2.05 2.16 2.47 2.51 2.39 2.61 3.32 3.74 2.89 2.54 1.98 1.57 1.59 1.74 2.09 2.39 1.70 1.89 2.18 2.37 2.74 2.10 1.92 1.89 2.41 1.78 2.26 1.83 1.91 1.96 1.75 1.54 1.70 1.43 1.10 1.51 1.51 1.37 1.41 1.39 1.90 0.60 0.72 1.03
0.54 0.76 0.52 0.28 1.02 0.57 0.55 0.39 0.21 0.50 0.28 0.49 0.62 1.04 0.78 0.51 0.70 1.14 1.25 1.67 1.95 1.89 1.99 2.63 1.55 1.24 1.86 2.12 1.69 2.00 2.36 1.80 2.18 2.31 2.27 2.74 1.97 2.36 2.33 2.93 2.96 3.13 2.68 2.72 2.15 2.56 2.14 2.27 3.19 2.47 1.92 2.22 2.28 2.12 1.93 1.65 1.97 1.87 1.95 2.07 2.48 2.19 2.38 2.25 2.25 2.15 1.72 1.70 1.80 1.87 2.04 1.70 1.83 2.00 2.19 2.40 2.77 2.19 1.95 2.00 1.58 1.97 2.03 2.12 1.90 1.82 1.41 1.10 1.28 2.12 1.67 1.17 1.57 1.03 1.28 1.46 1.60
0.34 0.77 0.23 0.63 0.30 0.46 0.65 0.36 0.21 0.21 0.17 0.48 0.86 0.61 0.45 0.85 0.59 1.06 1.48 1.70 1.93 1.60 2.01 1.76 1.42 1.48 1.83 1.82 1.71 2.17 1.53 2.56 2.44 2.21 1.74 2.04 2.78 2.22 2.74 2.98 3.45 3.22 3.54 2.82 2.94 3.05 2.44 2.29 2.58 1.93 2.02 1.95 2.02 1.80 1.56 1.71 2.27 2.03 2.25 2.30 1.56 2.28 2.46 2.08 2.26 2.35 2.22 1.61 1.28 1.25 1.39 1.85 1.42 2.19 2.59 2.15 2.41 2.48 2.24 1.99 1.90 2.04 1.76 1.90 1.72 1.88 1.46 1.18 1.70 2.34 1.60 1.22 1.17 1.74 1.63 1.42 1.19
0.56 0.40 0.75 0.61 0.67 0.37 0.95 0.16 0.22 0.18 0.31 0.40 0.41 0.58 0.76 0.54 0.73 0.93 1.84 2.15 1.55 1.50 2.21 2.33 2.31 2.03 1.37 1.88 1.53 1.27 1.74 1.36 1.86 1.58 1.98 2.39 1.99 2.79 2.62 2.69 3.14 3.14 2.63 3.74 2.84 2.71 2.22 2.48 2.16 2.14 2.71 1.88 1.81 1.90 1.94 2.74 3.08 2.87 2.58 2.47 2.65 2.31 1.83 2.35 2.09 1.75 2.03 1.61 1.69 1.34 1.17 1.04 1.55 1.37 1.74 1.83 1.99 2.03 2.46 1.54 1.87 1.75 1.71 1.60 1.45 2.21 2.03 1.65 1.69 1.95 1.82 1.72 1.70 1.87 1.27 1.27 1.67
0.56 0.72 0.43 0.40 0.22 0.43 0.53 0.76 0.51 0.13 0.15 0.31 0.22 0.31 0.36 0.65 0.55 1.31 1.61 1.18 1.71 1.87 1.79 1.54 1.35 1.04 0.82 0.73 0.73 1.15 1.04 1.24 1.45 1.34 1.74 2.52 1.94 2.25 2.00 2.15 3.09 2.23 3.20 2.96 2.96 3.17 2.38 2.20 2.26 3.06 3.31 2.36 2.12 1.89 2.68 2.46 2.45 2.71 2.82 2.26 1.93 2.13 2.29 1.88 2.02 1.94 2.16 2.85 2.13 1.31 1.62 1.69 1.70 1.70 1.86 2.11 1.75 1.74 1.87 1.79 1.55 1.77 2.01 1.59 1.31 1.16 2.01 1.81 2.20 2.51 2.25 1.75 1.60 1.26 1.58 1.28 1.11
0.29 0.42 0.32 0.62 0.68 0.30 0.35 0.37 0.14 0.38 0.30 0.37 0.23 0.45 0.32 0.31 0.43 0.92 2.65 2.04 1.25 1.34 1.23 1.44 0.63 0.73 0.85 0.93 1.20 1.01 1.01 1.43 1.79 1.55 1.82 1.47 2.25 2.66 3.26 2.91 3.20 2.20 1.78 2.06 1.54 2.23 2.44 2.42 1.96 2.16 2.71 1.73 2.18 2.04 1.81 1.94 2.15 1.97 1.76 2.31 1.72 1.49 1.30 1.64 2.27 1.97 1.99 1.85 1.58 2.02 1.90 1.58 1.54 1.06 1.02 1.03 1.30 1.52 1.62 1.66 1.68 1.71 1.68 1.79 1.67 1.79 1.95 1.97 2.16 2.14 2.45 1.43 1.44 1.29 1.38 1.24 1.13
0.18 0.30 0.53 0.75 0.39 0.31 0.24 0.22 0.20 0.21 0.40 0.50 0.41 0.17 0.31 0.33 0.39 1.07 2.29 1.88 1.61 1.76 2.00 1.18 1.13 0.79 1.39 0.90 0.95 1.06 1.36 2.12 1.46 2.09 1.47 1.89 2.03 2.40 2.49 2.07 1.94 2.66 1.74 2.25 1.73 1.50 1.60 1.62 1.57 2.25 2.52 2.47 2.77 1.01 1.55 1.80 1.75 2.32 3.05 1.79 1.90 1.63 1.88 1.79 2.02 1.77 2.22 1.98 1.91 2.14 1.50 1.41 1.39 0.86 0.96 0.74 0.98 0.98 1.28 1.23 1.13 1.26 1.35 1.30 1.21 1.66 1.87 1.98 2.18 1.92 2.07 1.55 1.89 2.21 1.37 1.06 1.27
0.09 0.22 0.55 0.56 0.72 0.56 0.52 0.41 0.10 0.17 0.62 0.43 0.47 0.25 0.26 0.31 0.57 1.27 0.75 1.60 1.43 1.30 2.27 2.37 3.03 2.20 1.61 2.03 1.89 1.77 1.54 2.19 1.48 1.30 1.85 2.41 1.65 1.13 1.15 1.35 1.92 1.93 1.79 1.19 1.56 1.14 1.55 1.37 2.40 2.63 2.90 3.16 3.09 2.13 1.45 1.38 1.99 1.91 1.55 1.69 1.40 2.28 2.08 1.84 1.98 2.43 1.90 1.52 1.77 1.59 1.59 1.34 0.97 1.15 0.88 0.78 1.15 1.05 1.14 0.85 0.59 0.87 1.19 1.18 1.28 1.26 1.49 1.34 1.50 2.07 1.58 1.51 1.14 1.28 1.13 0.64 1.52
0.29 0.74 0.39 0.59 0.42 0.27 0.25 0.35 0.13 0.17 0.56 0.52 0.28 0.39 0.43 0.54 0.48 0.77 0.77 0.89 1.85 2.15 2.59 2.92 3.05 2.16 2.64 1.88 2.11 1.63 1.29 1.38 1.26 1.53 1.47 1.64 1.35 0.86 0.99 0.99 1.13 1.10 1.15 1.52 0.92 1.22 1.32 1.87 2.21 3.31 3.04 3.84 3.60 4.10 3.80 3.63 2.54 2.53 2.18 1.96 1.84 2.62 2.46 2.85 2.17 1.88 1.78 1.60 1.17 1.65 1.26 0.82 0.74 0.86 0.83 0.64 0.81 0.99 1.16 1.22 0.99 1.39 1.30 1.67 1.60 1.96 1.70 1.28 1.46 1.72 1.90 1.20 1.15 1.02 1.39 1.24 1.62
0.39 0.23 0.55 0.91 0.21 0.70 0.67 0.20 0.08 0.05 0.46 0.42 0.59 0.55 0.53 0.76 0.62 0.72 0.70 0.61 1.09 2.19 2.41 2.66 4.54 3.59 2.50 2.73 1.75 2.27 1.73 2.22 2.56 2.16 1.62 1.54 1.02 1.40 1.18 0.82 1.01 1.11 2.04 1.53 1.78 1.92 2.68 2.63 1.78 2.20 2.80 2.17 2.53 3.04 3.43 3.17 2.60 2.12 2.19 2.77 3.82 3.08 3.19 2.54 1.79 2.09 1.87 2.07 1.83 2.00 1.23 1.04 0.97 0.89 1.01 1.08 0.78 0.70 1.15 1.41 1.63 1.75 1.45 1.43 1.42 1.54 2.04 1.63 1.96 1.56 1.60 1.00 1.21 1.78 1.33 1.86 1.08
0.27 0.31 0.72 0.28 0.18 0.28 0.66 0.40 0.18 0.12 0.10 0.18 0.38 0.74 0.78 0.40 0.68 0.54 0.72 0.64 0.91 0.75 0.93 1.19 1.23 1.47 1.07 1.22 1.05 1.45 1.66 1.45 1.44 1.30 1.84 1.38 1.07 1.55 1.22 0.90 1.12 1.48 0.80 1.52 2.04 2.36 2.67 1.64 1.77 1.91 2.13 2.32 2.45 3.31 1.92 2.70 2.77 2.61 2.25 2.58 3.25 2.59 3.14 2.48 2.39 1.94 1.42 1.94 2.20 1.80 1.09 0.77 0.69 0.74 1.51 1.76 1.18 0.87 1.26 1.53 1.20 1.45 1.04 1.32 1.55 1.67 1.74 1.70 1.55 1.46 1.42 1.46 1.33 1.32 1.36 1.52 2.31
0.43 0.09 0.22 0.50 0.14 0.33 0.21 0.10 0.31 0.40 0.46 0.24 0.27 1.08 1.33 0.74 0.65 0.61 0.55 0.47 0.38 0.54 0.83 0.93 0.90 0.90 0.60 1.05 1.01 0.60 0.54 0.73 1.19 0.80 1.12 1.25 0.92 1.61 1.24 1.56 2.08 2.17 1.73 1.22 1.51 1.86 2.17 1.65 1.61 2.52 1.81 2.20 2.89 3.57 2.90 2.74 2.39 1.71 2.26 2.05 1.87 1.71 2.37 2.01 2.39 1.52 1.19 1.06 1.07 0.89 1.14 0.91 0.87 0.75 1.07 1.72 1.48 1.14 1.37 1.68 1.82 1.38 1.31 1.58 1.57 1.61 1.40 1.38 1.66 1.57 1.08 1.56 1.58 1.35 1.45 1.89 1.71
0.68 0.48 0.03 0.07 0.25 0.26 0.73 0.47 0.74 1.21 1.10 0.78 0.21 1.62 1.41 0.82 0.75 0.67 0.50 0.42 0.53 0.68 0.84 1.03 1.05 0.66 0.69 0.90 1.08 1.03 0.79 0.65 0.63 0.75 0.60 0.96 1.50 1.31 1.04 1.84 2.55 1.89 1.86 1.23 1.30 2.06 1.15 1.01 1.42 2.25 2.49 1.39 2.22 2.19 1.90 1.75 1.76 1.66 1.67 1.46 1.95 1.61 1.28 2.26 1.47 1.26 0.92 0.77 0.69 0.85 0.95 1.35 1.15 1.11 1.09 1.40 1.42 0.64 1.06 1.39 1.08 1.20 1.38 1.45 1.38 1.47 1.66 0.95 0.90 1.04 1.34 1.97 1.58 1.39 1.77 1.46 0.80
0.85 0.04 0.12 0.10 0.17 0.24 0.33 0.35 0.54 0.78 0.18 0.15 0.09 0.32 0.98 1.07 0.72 0.20 0.38 0.45 0.36 0.70 0.76 0.50 0.66 0.52 0.49 0.71 1.23 1.20 0.51 0.57 0.64 0.45 1.02 1.31 1.01 0.86 0.78 1.35 2.27 2.63 2.12 1.30 1.80 2.06 1.54 1.06 1.06 2.12 1.23 1.65 1.53 1.31 0.94 0.88 1.86 1.65 1.62 1.57 2.18 2.26 1.80 2.15 1.13 1.09 1.15 1.05 1.24 0.88 1.24 1.79 1.33 1.77 1.73 1.44 1.61 1.32 1.39 1.43 1.54 1.51 0.92 1.21 1.16 1.35 1.27 1.19 1.03 1.36 1.26 1.73 1.67 1.53 1.48 1.57 1.15
0.37 0.08 0.02 0.19 0.13 0.22 0.36 0.67 0.79 0.47 0.32 0.83 0.39 0.15 0.71 1.20 0.79 0.20 0.59 0.61 0.51 0.60 0.43 0.36 0.46 0.63 0.78 0.81 0.86 0.77 0.95 0.91 1.09 1.78 1.04 1.57 0.79 1.60 1.34 0.96 1.69 1.60 1.40 2.57 2.80 3.07 2.10 1.47 1.45 1.79 1.49 1.66 1.38 1.15 1.12 1.41 1.73 1.94 1.97 2.16 1.94 1.95 2.31 2.13 1.27 0.95 1.02 0.92 0.89 1.65 1.60 2.58 2.43 2.27 2.12 1.68 1.41 1.20 0.95 1.02 0.96 1.13 1.04 0.94 0.92 1.20 1.22 1.08 1.14 1.22 1.11 1.46 1.73 0.84 1.28 2.10 1.65
0.01 0.01 0.01 0.05 0.10 0.24 0.22 0.48 0.85 0.59 0.60 1.04 0.82 0.38 1.07 1.55 0.78 0.72 0.50 0.63 0.46 0.44 0.42 0.62 0.71 1.17 0.65 0.77 0.45 0.48 0.58 0.37 0.54 0.90 0.86 1.00 1.65 1.38 0.79 0.48 1.15 1.66 3.00 3.91 3.43 3.15 1.92 1.80 1.76 1.09 1.49 1.80 1.56 1.66 0.94 1.17 0.99 1.99 2.33 2.28 1.84 1.97 2.10 1.24 1.15 1.31 1.32 1.52 1.04 1.85 2.00 1.37 1.54 1.39 1.27 1.82 1.77 1.67 1.51 1.14 0.99 0.93 1.00 1.32 0.95 1.08 1.28 1.22 1.38 1.27 0.75 1.39 1.33 1.75 1.51 2.74 1.51
0.01 0.01 0.10 0.18 0.29 0.40 0.40 0.34 0.78 0.67 0.94 0.94 0.35 0.26 0.32 1.36 1.25 1.10 0.88 0.36 0.31 0.35 0.34 0.37 0.39 0.48 0.56 0.65 1.03 0.90 0.37 0.35 0.47 0.80 0.89 1.56 1.93 1.51 0.78 1.00 1.81 2.18 2.96 3.12 4.36 1.90 1.91 1.81 2.27 2.39 1.22 1.69 1.92 1.43 1.07 1.36 1.32 1.15 1.52 1.50 1.80 1.73 1.04 1.09 1.24 1.05 1.36 1.43 1.15 1.24 1.15 0.97 0.91 1.00 0.99 1.06 1.06 1.19 1.42 1.18 1.13 1.09 0.94 0.96 1.09 1.36 1.23 1.46 1.00 0.96 0.97 1.04 1.27 1.61 0.95 1.44 1.61
0.01 0.13 0.15 0.43 0.50 0.44 0.62 0.73 0.44 1.04 1.29 0.29 0.23 0.43 0.41 1.05 2.15 0.81 0.28 0.17 0.25 0.31 0.19 0.27 0.22 0.27 0.41 0.30 0.37 0.27 0.33 0.35 0.45 0.60 0.96 1.46 0.86 0.98 0.83 1.21 1.79 3.59 3.53 3.38 2.36 1.51 2.01 1.68 1.87 1.82 1.81 1.63 1.89 2.20 1.85 1.68 2.13 1.41 2.12 2.01 1.34 1.25 1.33 0.98 0.70 0.51 0.54 0.85 0.99 0.95 0.75 0.78 0.93 1.07 1.69 1.28 1.22 0.99 0.84 0.81 0.85 0.98 0.89 0.79 0.75 0.85 1.08 0.84 1.03 1.19 1.39 1.30 1.02 1.06 1.01 1.37 1.19
0.09 0.14 0.38 1.31 1.60 0.71 0.93 1.45 0.83 0.67 0.99 0.51 0.43 0.20 0.62 1.00 0.82 1.12 0.36 0.26 0.22 0.16 0.34 0.26 0.15 0.15 0.16 0.13 0.15 0.60 0.35 0.47 0.71 0.76 0.84 0.97 1.05 0.96 1.26 2.07 1.48 1.10 2.57 2.34 1.79 2.32 1.56 1.78 2.15 2.84 3.36 2.16 2.28 1.98 1.72 2.23 2.80 2.40 3.16 2.19 1.15 1.45 1.12 1.35 0.85 0.65 1.10 0.96 0.97 1.05 0.91 1.02 0.76 1.08 0.67 0.65 0.64 0.66 0.56 0.56 0.56 0.72 0.75 1.04 0.85 0.80 0.90 0.80 1.79 1.54 1.38 1.30 1.26 0.93 0.94 0.97 1.20
0.29 0.44 0.70 1.03 1.05 0.61 0.33 0.74 0.46 0.83 0.39 0.27 0.62 0.09 0.87 1.09 0.74 0.56 0.67 0.35 0.19 0.12 0.12 0.19 0.09 0.08 0.10 0.12 0.13 0.22 0.27 0.54 0.62 0.84 0.75 0.84 0.72 1.40 1.15 1.21 1.08 1.22 2.29 2.76 1.88 1.58 2.39 2.09 1.87 2.42 2.80 1.71 2.40 2.58 1.83 1.44 2.71 3.01 2.49 1.24 0.74 0.75 0.95 1.24 1.58 0.71 0.49 0.68 0.89 0.46 0.57 0.61 0.60 0.71 0.98 0.76 0.51 0.63 1.04 0.82 0.87 0.70 0.88 0.96 1.17 0.95 0.79 0.84 1.03 0.88 1.17 1.10 1.09 0.92 0.94 1.17 1.00
0.68 0.25 0.50 0.88 0.73 0.87 0.50 0.80 0.80 0.85 0.98 0.50 0.20 0.44 1.01 0.81 3.62 0.64 0.20 0.23 0.16 0.07 0.17 0.15 0.14 0.11 0.21 0.12 0.23 0.29 0.32 0.32 0.29 0.36 0.55 1.08 1.39 1.25 1.04 1.36 1.24 1.04 1.79 1.86 1.49 1.30 1.02 1.03 1.70 2.53 3.28 3.12 2.17 2.43 1.38 1.96 2.21 1.56 1.98 1.54 1.04 0.80 0.63 1.46 1.92 1.27 0.72 0.59 0.59 1.15 0.65 0.59 0.80 0.99 1.00 0.57 0.65 0.56 1.10 0.68 0.66 0.63 0.65 0.75 1.03 1.02 0.96 1.22 1.44 1.48 1.01 1.16 1.49 1.20 1.30 1.22 1.21
0.11 0.27 0.30 0.66 1.00 0.16 0.96 0.67 0.58 0.79 0.60 0.73 0.27 0.46 0.97 1.45 1.26 1.08 0.84 0.14 0.07 0.12 0.13 0.07 0.12 0.13 0.12 0.21 0.20 0.28 0.30 0.27 0.44 0.62 1.17 1.27 1.30 1.33 1.23 1.02 1.03 1.02 1.06 1.04 0.74 0.95 1.49 1.39 1.41 2.02 2.70 3.22 2.78 2.95 3.06 3.13 2.23 1.27 1.18 0.91 0.96 0.95 1.16 1.11 1.83 2.02 1.77 1.06 1.02 0.81 1.07 0.73 1.09 0.48 0.36 0.39 0.70 0.65 0.54 0.69 0.78 0.65 0.96 1.18 1.05 0.96 1.07 0.73 0.93 1.11 0.98 0.72 1.10 1.11 1.55 0.99 0.86
0.83 0.23 0.84 0.54 0.10 0.19 0.43 0.15 0.07 0.04 0.19 0.50 0.24 0.82 0.89 0.29 0.62 0.79 0.67 0.11 0.23 0.18 0.14 0.09 0.31 0.43 0.55 0.67 0.91 0.97 0.95 0.84 1.07 1.36 1.40 1.25 1.25 1.12 1.18 0.93 1.01 0.58 0.69 0.64 0.94 1.38 1.31 1.30 1.02 0.98 1.24 1.68 2.97 2.24 1.87 3.11 2.41 1.70 1.78 1.53 1.05 0.97 1.03 1.38 1.30 1.09 0.90 0.83 1.04 1.04 0.82 0.56 0.85 0.96 0.78 0.86 0.87 0.79 0.57 0.93 0.91 1.03 0.88 0.87 0.96 0.73 0.86 0.74 1.03 1.04 0.88 0.78 0.85 0.76 1.07 1.05 1.24
0.21 0.93 0.30 0.13 0.06 0.14 0.19 0.86 0.27 0.21 0.68 0.42 0.36 0.81 1.38 0.55 2.72 1.01 0.71 0.52 0.51 0.34 0.33 0.50 0.50 0.57 0.67 0.82 0.81 0.91 1.05 1.10 0.88 1.02 0.82 0.80 0.73 1.03 1.18 0.89 1.13 0.78 1.40 0.83 0.80 1.03 0.88 1.27 1.32 1.00 1.40 1.93 2.14 2.07 1.86 2.00 1.75 2.06 1.51 1.15 0.97 0.77 0.95 0.91 1.26 1.43 1.13 1.05 0.84 1.23 0.94 1.13 0.74 0.70 0.81 0.86 0.66 0.64 0.55 0.65 1.05 0.74 0.93 0.93 0.77 0.89 1.12 1.02 1.22 1.81 1.09 0.82 0.88 1.20 1.02 1.19 1.16
0.15 0.54 0.12 0.43 1.37 1.62 0.29 0.11 0.46 0.68 0.35 0.38 0.42 0.48 0.78 0.61 1.69 0.73 1.29 1.02 0.61 0.52 0.39 0.24 0.27 0.19 0.42 0.77 1.02 0.98 0.61 0.62 0.63 0.87 0.85 0.60 0.83 0.86 1.05 0.92 1.00 1.38 1.31 0.72 1.00 1.20 0.62 0.83 0.70 0.62 1.59 2.37 2.64 2.51 2.25 2.83 1.85 2.26 1.36 0.98 1.01 1.07 1.45 1.54 1.23 1.18 1.91 1.73 1.13 1.25 0.97 0.87 1.31 1.32 1.26 1.06 0.87 1.04 1.20 0.80 0.63 1.07 0.81 1.10 1.07 1.06 0.79 0.98 1.15 1.31 1.29 0.95 1.02 1.52 1.39 1.18 0.83
0.04 0.05 0.41 0.24 0.25 0.53 0.85 0.41 0.58 0.47 0.83 0.26 0.85 0.64 1.34 0.75 1.08 0.68 0.83 0.62 0.71 0.61 0.41 0.50 0.44 0.54 0.38 0.40 0.32 0.45 0.45 0.62 0.73 0.82 0.85 0.75 0.82 1.19 1.10 1.08 0.97 0.98 0.56 0.71 1.19 1.48 1.30 1.77 0.72 1.45 2.12 3.32 1.24 1.10 1.76 1.71 1.24 1.00 1.12 1.25 1.50 1.38 1.03 1.25 1.10 1.14 1.18 1.19 0.81 0.79 1.03 1.41 1.55 1.60 1.70 1.71 1.44 1.29 1.64 1.13 1.03 0.84 0.89 1.06 0.97 1.28 1.10 0.99 1.29 1.18 1.28 1.52 1.16 1.26 1.28 1.01 0.90
0.25 0.15 0.49 0.39 0.24 0.26 0.17 0.39 0.34 0.64 0.49 0.55 0.44 0.72 1.38 1.02 0.60 0.47 0.82 0.41 0.34 0.66 0.61 0.54 0.60 0.60 0.74 0.68 0.39 0.43 0.47 0.49 0.47 0.72 0.63 0.89 0.84 0.88 0.86 0.80 1.00 0.95 0.79 1.46 1.67 1.71 1.92 2.13 1.77 2.55 2.85 2.24 2.12 1.93 1.86 1.76 1.39 0.93 0.87 1.05 1.09 0.79 0.59 0.81 1.26 1.32 1.56 1.47 1.14 1.41 1.47 1.16 1.60 1.57 1.53 2.08 1.93 2.35 2.14 1.42 1.05 1.30 1.17 0.87 0.71 1.26 1.04 1.54 1.31 1.18 1.08 1.10 1.39 0.99 0.89 1.22 1.50
0.39 0.28 0.61 0.34 0.63 0.87 0.72 0.99 0.14 0.22 0.46 0.58 0.40 1.06 1.13 0.93 0.48 1.18 0.59 0.28 0.67 0.68 0.75 0.77 0.64 0.55 0.41 0.36 0.51 0.42 0.58 0.54 0.40 0.28 0.59 0.75 0.77 1.26 0.95 0.92 1.13 1.27 1.20 0.96 1.17 1.11 0.92 1.24 1.93 2.31 2.96 2.77 2.80 2.75 2.51 2.64 2.01 2.31 1.79 2.70 1.58 1.88 1.11 0.44 0.48 1.36 1.64 2.03 2.18 2.57 1.42 0.70 1.37 2.00 1.63 1.33 0.98 1.34 1.02 1.20 0.99 0.83 1.09 1.33 1.29 1.25 1.42 1.30 1.79 1.26 1.00 1.28 0.78 0.74 0.83 1.33 1.37